Queralbs





Hora UTC 21:10
Temperatura 3.4 ºC
Humitat 65.0 %
Pressió 1023.3 hPa
Pluja 0.0 mm
Velocitat vent 0.0 km/h
Direcció vent N
Radiació solar 0.0 W/m²

Dades diàries 2020-01-29



Hora UTC (hivern +1h; estiu +2h)
Temperatura (ºC) Humitat (%) Pressió (hPa) Velocitat vent (km/h) Precipitació (mm) Radiació solar (W/m²)
Hora UTC Aire Humitat Pressió Vel. Dir. Vel. Max Dir. Intent. màx 5 min. Rad. Sol.
00:05 0.9 70.0 1020.5 0.0 NW 0.0 0.0 0.0
00:10 0.9 70.0 1020.3 0.0 NW 1.6 0.0 0.0
00:15 0.9 70.0 1020.5 1.6 NW 1.6 0.0 0.0
00:15 0.9 70.0 1020.4 0.0 NW 1.6 0.0 0.0
00:25 0.9 70.0 1020.3 0.0 NW 3.2 0.0 0.0
00:30 0.9 70.0 1020.4 3.2 NW 3.2 0.0 0.0
00:35 0.9 69.0 1020.3 3.2 NW 3.2 0.0 0.0
00:40 0.7 69.0 1020.4 1.6 NW 3.2 0.0 0.0
00:45 0.7 70.0 1020.5 0.0 NW 3.2 0.0 0.0
00:50 0.6 69.0 1020.5 0.0 NW 1.6 0.0 0.0
00:55 0.4 70.0 1020.5 1.6 NW 3.2 0.0 0.0
01:00 0.4 70.0 1020.5 1.6 NW 8.0 0.0 0.0
01:05 0.6 70.0 1020.6 1.6 NW 8.0 0.0 0.0
01:10 0.6 70.0 1020.4 3.2 NW 4.8 0.0 0.0
01:15 0.6 70.0 1020.4 0.0 NW 3.2 0.0 0.0
01:15 0.6 69.0 1020.6 0.0 NW 3.2 0.0 0.0
01:25 0.5 68.0 1020.4 1.6 NW 3.2 0.0 0.0
01:30 0.3 69.0 1020.4 0.0 NW 3.2 0.0 0.0
01:35 0.4 69.0 1020.4 0.0 NW 3.2 0.0 0.0
01:40 0.4 69.0 1020.5 0.0 NW 3.2 0.0 0.0
01:45 0.6 69.0 1020.3 0.0 NW 3.2 0.0 0.0
01:50 0.6 68.0 1020.3 1.6 NW 1.6 0.0 0.0
01:55 0.5 68.0 1020.3 3.2 NW 3.2 0.0 0.0
02:00 0.4 68.0 1020.1 0.0 NW 3.2 0.0 0.0
02:05 0.3 69.0 1020.1 1.6 NW 3.2 0.0 0.0
02:10 0.4 69.0 1020.3 0.0 NW 3.2 0.0 0.0
02:15 0.5 68.0 1020.1 0.0 NW 1.6 0.0 0.0
02:15 0.6 68.0 1020.1 1.6 NW 3.2 0.0 0.0
02:25 0.7 67.0 1020.2 0.0 NW 3.2 0.0 0.0
02:30 0.7 67.0 1020.2 0.0 NW 3.2 0.0 0.0
02:35 0.7 67.0 1020.1 0.0 NW 3.2 0.0 0.0
02:40 0.6 66.0 1020.1 0.0 NW 3.2 0.0 0.0
02:45 0.6 67.0 1020.0 1.6 NW 1.6 0.0 0.0
02:50 0.5 66.0 1020.1 0.0 NW 4.8 0.0 0.0
02:55 0.4 66.0 1020.1 1.6 NW 4.8 0.0 0.0
03:00 0.4 66.0 1020.1 0.0 NW 1.6 0.0 0.0
03:05 0.5 65.0 1020.1 3.2 NW 3.2 0.0 0.0
03:10 0.4 66.0 1020.1 0.0 NW 3.2 0.0 0.0
03:15 0.3 66.0 1020.0 3.2 NW 3.2 0.0 0.0
03:15 0.3 66.0 1020.0 1.6 NW 3.2 0.0 0.0
03:25 0.3 66.0 1020.0 0.0 N 4.8 0.0 0.0
03:30 0.4 65.0 1020.1 1.6 NNW 4.8 0.0 0.0
03:35 0.5 65.0 1020.0 3.2 E 4.8 0.0 0.0
03:40 0.5 64.0 1020.4 3.2 WNW 6.4 0.0 0.0
03:45 0.6 65.0 1020.3 1.6 SSW 6.4 0.0 0.0
03:50 0.6 64.0 1020.3 1.6 WNW 4.8 0.0 0.0
03:55 0.6 64.0 1020.2 3.2 SW 4.8 0.0 0.0
04:00 0.7 62.0 1020.1 0.0 SW 4.8 0.0 0.0
04:05 0.8 61.0 1020.2 3.2 NNW 9.7 0.0 0.0
04:10 0.9 62.0 1020.1 0.0 SW 9.7 0.0 0.0
04:15 0.9 61.0 1020.1 0.0 N 6.4 0.0 0.0
04:15 0.9 61.0 1020.0 0.0 N 6.4 0.0 0.0
04:25 0.9 61.0 1020.2 1.6 N 1.6 0.0 0.0
04:30 0.8 60.0 1020.2 3.2 N 3.2 0.0 0.0
04:35 0.8 60.0 1019.9 3.2 WNW 4.8 0.0 0.0
04:40 0.9 59.0 1020.1 3.2 W 6.4 0.0 0.0
04:45 1.0 58.0 1020.3 0.0 W 6.4 0.0 0.0
04:50 1.1 57.0 1020.2 0.0 NNW 4.8 0.0 0.0
04:55 1.2 57.0 1020.0 1.6 WSW 6.4 0.0 0.0
05:00 1.3 56.0 1020.2 3.2 WSW 6.4 0.0 0.0
05:05 1.4 56.0 1020.3 0.0 NW 4.8 0.0 0.0
05:10 1.4 56.0 1020.3 0.0 NW 4.8 0.0 0.0
05:15 1.3 57.0 1020.1 3.2 W 4.8 0.0 0.0
05:15 1.2 56.0 1020.3 0.0 W 4.8 0.0 0.0
05:25 1.2 56.0 1020.1 0.0 WNW 3.2 0.0 0.0
05:30 1.2 55.0 1020.3 0.0 WNW 1.6 0.0 0.0
05:35 1.2 55.0 1020.2 0.0 WNW 3.2 0.0 0.0
05:40 1.3 52.0 1020.3 3.2 NNW 8.0 0.0 0.0
05:45 1.3 56.0 1020.3 3.2 W 8.0 0.0 0.0
05:50 1.1 52.0 1020.4 3.2 NNE 6.4 0.0 0.0
05:55 1.3 53.0 1020.6 1.6 NW 8.0 0.0 0.0
06:00 1.3 52.0 1020.6 0.0 NW 8.0 0.0 0.0
06:05 1.2 52.0 1020.9 1.6 ENE 4.8 0.0 0.0
06:10 1.3 52.0 1021.0 0.0 N 8.0 0.0 0.0
06:15 1.1 52.0 1020.7 1.6 N 8.0 0.0 0.0
06:15 1.0 52.0 1020.8 6.4 NNW 6.4 0.0 0.0
06:25 1.3 50.0 1020.9 4.8 NW 6.4 0.0 0.0
06:30 1.3 53.0 1020.8 1.6 NW 6.4 0.0 0.0
06:35 1.3 51.0 1021.1 6.4 N 6.4 0.0 0.0
06:40 1.4 53.0 1021.0 3.2 N 6.4 0.0 0.0
06:45 1.2 52.0 1021.1 0.0 N 4.8 0.0 0.0
06:50 1.1 51.0 1021.0 0.0 N 3.2 0.0 0.0
06:55 1.0 53.0 1021.2 1.6 SE 4.8 0.0 0.0
07:00 0.9 51.0 1021.3 1.6 SE 4.8 0.0 0.0
07:05 1.0 50.0 1021.2 3.2 SE 4.8 0.0 0.0
07:10 1.0 50.0 1021.3 0.0 SE 4.8 0.0 0.0
07:15 1.1 49.0 1021.4 4.8 NNW 6.4 0.0 5.0
07:15 1.2 49.0 1021.4 3.2 NNW 6.4 0.0 7.0
07:25 1.1 49.0 1021.4 1.6 SW 4.8 0.0 12.0
07:30 1.2 50.0 1021.4 3.2 WNW 4.8 0.0 14.0
07:35 1.2 49.0 1021.5 3.2 NW 4.8 0.0 16.0
07:40 1.3 50.0 1021.7 0.0 NW 4.8 0.0 18.0
07:45 1.4 48.0 1021.8 1.6 NW 3.2 0.0 21.0
07:50 1.6 46.0 1021.9 0.0 NW 3.2 0.0 26.0
07:55 1.8 49.0 1021.9 3.2 NW 3.2 0.0 32.0
08:00 1.8 50.0 1021.9 1.6 NW 4.8 0.0 39.0
08:05 1.9 47.0 1021.9 1.6 NW 3.2 0.0 60.0
08:10 2.1 48.0 1021.8 0.0 NW 3.2 0.0 90.0
08:15 2.4 49.0 1021.8 1.6 NW 1.6 0.0 134.0
08:15 2.7 48.0 1021.8 0.0 NW 1.6 0.0 151.0
08:25 3.3 47.0 1021.7 1.6 NW 1.6 0.0 84.0
08:30 3.7 45.0 1021.9 3.2 NW 3.2 0.0 111.0
08:35 4.1 48.0 1021.9 1.6 NNW 4.8 0.0 63.0
08:40 4.2 48.0 1021.8 0.0 NNW 3.2 0.0 128.0
08:45 4.3 44.0 1022.0 1.6 NNW 4.8 0.0 239.0
08:50 4.7 48.0 1022.1 3.2 NNW 4.8 0.0 322.0
08:55 5.0 49.0 1022.4 1.6 N 3.2 0.0 301.0
09:00 5.4 46.0 1022.4 0.0 N 3.2 0.0 169.0
09:05 5.6 43.0 1022.5 0.0 N 3.2 0.0 111.0
09:10 5.7 46.0 1022.6 0.0 N 3.2 0.0 139.0
09:15 5.8 45.0 1022.8 1.6 N 3.2 0.0 151.0
09:15 5.8 46.0 1022.7 1.6 S 4.8 0.0 91.0
09:25 5.9 47.0 1022.5 0.0 S 3.2 0.0 364.0
09:30 5.9 46.0 1022.6 3.2 S 3.2 0.0 297.0
09:35 6.1 51.0 1022.6 1.6 SSW 6.4 0.0 239.0
09:40 6.3 48.0 1022.6 4.8 SE 6.4 0.0 429.0
09:45 6.4 46.0 1022.6 0.0 SE 6.4 0.0 338.0
09:50 6.4 44.0 1022.7 1.6 SE 4.8 0.0 244.0
09:55 6.4 45.0 1022.7 3.2 S 4.8 0.0 294.0
10:00 6.4 42.0 1022.7 1.6 S 4.8 0.0 294.0
10:05 6.7 40.0 1022.7 4.8 SSE 6.4 0.0 422.0
10:10 6.8 38.0 1022.8 4.8 SSE 6.4 0.0 339.0
10:15 6.9 37.0 1023.1 1.6 SSE 4.8 0.0 230.0
10:15 7.1 38.0 1023.1 1.6 SSE 4.8 0.0 308.0
10:25 7.4 40.0 1023.2 1.6 SSE 4.8 0.0 281.0
10:30 7.5 39.0 1023.3 1.6 SSE 4.8 0.0 367.0
10:35 7.6 36.0 1023.3 0.0 SSE 4.8 0.0 499.0
10:40 7.8 40.0 1023.3 0.0 SSE 4.8 0.0 540.0
10:45 7.9 41.0 1023.1 3.2 ESE 4.8 0.0 513.0
10:50 8.3 40.0 1023.1 3.2 SE 4.8 0.0 520.0
10:55 8.5 35.0 1022.9 3.2 ENE 4.8 0.0 536.0
11:00 8.6 37.0 1023.1 4.8 S 4.8 0.0 526.0
11:05 8.9 36.0 1022.9 3.2 SE 6.4 0.0 541.0
11:10 9.3 34.0 1022.9 1.6 SSE 6.4 0.0 503.0
11:15 9.6 34.0 1023.1 4.8 S 9.7 0.0 550.0
11:15 9.7 31.0 1023.0 4.8 S 9.7 0.0 550.0
11:25 10.1 32.0 1022.7 1.6 SSE 8.0 0.0 566.0
11:30 10.3 30.0 1022.8 8.0 SSE 9.7 0.0 554.0
11:35 10.4 32.0 1022.7 4.8 SSE 9.7 0.0 540.0
11:40 10.7 29.0 1022.7 6.4 S 8.0 0.0 571.0
11:45 10.8 28.0 1022.7 3.2 SSE 9.7 0.0 555.0
11:50 10.9 27.0 1022.6 3.2 SSW 9.7 0.0 573.0
11:55 11.1 28.0 1022.6 4.8 SE 11.3 0.0 568.0
12:00 11.2 28.0 1022.4 4.8 SE 6.4 0.0 571.0
12:05 11.2 28.0 1022.5 3.2 SE 8.0 0.0 573.0
12:10 11.1 30.0 1022.3 6.4 SE 8.0 0.0 575.0
12:15 11.0 30.0 1022.2 3.2 SSE 11.3 0.0 520.0
12:15 11.0 33.0 1022.1 3.2 S 11.3 0.0 570.0
12:25 11.2 34.0 1022.1 9.7 SSE 9.7 0.0 555.0
12:30 11.2 33.0 1022.1 3.2 SE 11.3 0.0 545.0
12:35 11.3 32.0 1022.1 3.2 SE 11.3 0.0 522.0
12:40 11.4 34.0 1022.0 8.0 SSE 9.7 0.0 513.0
12:45 11.4 32.0 1021.9 4.8 S 9.7 0.0 538.0
12:50 11.4 34.0 1021.9 3.2 S 11.3 0.0 534.0
12:55 11.4 34.0 1021.7 3.2 SSE 11.3 0.0 540.0
13:00 11.6 35.0 1021.6 6.4 SSE 9.7 0.0 494.0
13:05 11.8 36.0 1021.5 6.4 SE 11.3 0.0 503.0
13:10 11.9 33.0 1021.4 3.2 SSE 8.0 0.0 483.0
13:15 12.1 35.0 1021.3 6.4 SSE 6.4 0.0 515.0
13:15 12.1 35.0 1021.3 8.0 SSE 9.7 0.0 513.0
13:25 12.2 36.0 1021.2 6.4 SE 8.0 0.0 499.0
13:30 12.4 36.0 1021.3 3.2 SSE 9.7 0.0 489.0
13:35 12.3 37.0 1021.3 6.4 SSE 14.5 0.0 489.0
13:40 12.1 38.0 1021.2 6.4 SE 12.9 0.0 461.0
13:45 11.9 39.0 1021.1 6.4 S 11.3 0.0 464.0
13:50 11.9 40.0 1021.2 6.4 SSE 11.3 0.0 450.0
13:55 11.9 41.0 1021.2 8.0 SSE 12.9 0.0 418.0
14:00 11.7 42.0 1021.2 6.4 SE 12.9 0.0 357.0
14:05 11.5 43.0 1021.2 11.3 SE 11.3 0.0 287.0
14:10 11.1 44.0 1021.1 1.6 SSE 11.3 0.0 183.0
14:15 10.9 44.0 1021.2 6.4 SSE 9.7 0.0 234.0
14:20 10.7 45.0 1021.1 3.2 SSE 4.8 0.0 207.0
14:25 10.4 47.0 1021.2 3.2 SE 4.8 0.0 211.0
14:30 10.4 46.0 1021.2 1.6 ESE 4.8 0.0 200.0
14:35 10.2 47.0 1021.3 1.6 E 4.8 0.0 287.0
14:40 10.0 48.0 1021.3 1.6 ESE 4.8 0.0 308.0
14:45 9.9 48.0 1021.3 3.2 ESE 4.8 0.0 343.0
14:50 9.9 49.0 1021.3 1.6 ESE 4.8 0.0 267.0
14:55 9.9 50.0 1021.4 1.6 ESE 6.4 0.0 304.0
15:00 10.1 50.0 1021.3 0.0 SE 4.8 0.0 221.0
15:05 10.2 49.0 1021.2 0.0 SE 4.8 0.0 176.0
15:10 10.3 49.0 1021.4 4.8 SSE 4.8 0.0 192.0
15:15 10.3 49.0 1021.5 1.6 SSE 4.8 0.0 176.0
15:20 10.4 49.0 1021.5 0.0 SSE 4.8 0.0 169.0
15:25 10.5 48.0 1021.4 3.2 SSE 4.8 0.0 172.0
15:30 10.3 50.0 1021.0 1.6 SE 8.0 0.0 156.0
15:35 10.2 52.0 1021.1 1.6 SSE 8.0 0.0 144.0
15:40 9.9 52.0 1021.2 4.8 SE 8.0 0.0 121.0
15:45 9.7 53.0 1021.2 6.4 SSE 8.0 0.0 95.0
15:50 9.3 54.0 1021.2 4.8 S 12.9 0.0 76.0
15:55 9.0 55.0 1021.3 11.3 SE 16.1 0.0 70.0
16:00 8.7 56.0 1021.7 8.0 SSE 17.7 0.0 70.0
16:05 8.4 57.0 1021.8 4.8 SE 14.5 0.0 62.0
16:10 8.3 57.0 1021.9 1.6 SE 9.7 0.0 53.0
16:15 8.2 57.0 1021.9 0.0 SE 4.8 0.0 47.0
16:20 8.1 58.0 1021.9 1.6 ESE 4.8 0.0 42.0
16:25 7.9 58.0 1021.9 3.2 ESE 4.8 0.0 37.0
16:30 7.8 58.0 1022.1 3.2 N 4.8 0.0 32.0
16:35 7.7 58.0 1022.1 1.6 N 4.8 0.0 26.0
16:40 7.6 59.0 1022.1 1.6 N 3.2 0.0 23.0
16:45 7.3 59.0 1022.0 0.0 N 3.2 0.0 18.0
16:50 7.2 60.0 1022.0 0.0 N 1.6 0.0 14.0
16:55 7.1 60.0 1022.3 1.6 N 1.6 0.0 7.0
17:00 6.9 61.0 1022.1 1.6 N 1.6 0.0 5.0
17:05 6.7 61.0 1022.3 3.2 N 3.2 0.0 0.0
17:10 6.6 61.0 1022.3 0.0 N 3.2 0.0 0.0
17:15 6.3 62.0 1022.5 0.0 N 3.2 0.0 0.0
17:20 6.2 62.0 1022.4 1.6 N 3.2 0.0 0.0
17:25 6.0 63.0 1022.5 0.0 N 3.2 0.0 0.0
17:30 5.9 64.0 1022.6 1.6 N 3.2 0.0 0.0
17:35 5.9 64.0 1022.8 1.6 N 4.8 0.0 0.0
17:40 5.9 64.0 1022.8 4.8 N 4.8 0.0 0.0
17:45 5.8 64.0 1022.9 1.6 N 4.8 0.0 0.0
17:50 5.8 64.0 1022.9 1.6 N 4.8 0.0 0.0
17:55 5.7 64.0 1022.9 0.0 N 3.2 0.0 0.0
18:00 5.6 65.0 1022.9 0.0 N 4.8 0.0 0.0
18:05 5.4 65.0 1023.0 0.0 N 4.8 0.0 0.0
18:10 5.4 64.0 1022.9 3.2 NW 6.4 0.0 0.0
18:15 5.3 65.0 1022.9 1.6 NW 6.4 0.0 0.0
18:20 5.2 65.0 1022.9 0.0 NW 3.2 0.0 0.0
18:25 5.0 65.0 1023.0 3.2 NNW 4.8 0.0 0.0
18:30 4.8 65.0 1022.8 0.0 NNW 4.8 0.0 0.0
18:35 4.7 66.0 1023.0 1.6 NNW 4.8 0.0 0.0
18:40 4.6 67.0 1023.0 0.0 NNW 4.8 0.0 0.0
18:45 4.6 66.0 1023.0 0.0 NNW 3.2 0.0 0.0
18:50 4.3 66.0 1022.9 0.0 NNW 1.6 0.0 0.0
18:55 4.2 66.0 1022.9 1.6 NW 4.8 0.0 0.0
19:00 4.1 67.0 1022.9 1.6 NW 4.8 0.0 0.0
19:05 4.0 67.0 1022.8 0.0 NW 3.2 0.0 0.0
19:10 3.8 67.0 1022.9 0.0 NW 3.2 0.0 0.0
19:15 3.7 68.0 1023.1 1.6 NW 1.6 0.0 0.0
19:20 3.6 68.0 1023.0 0.0 NW 1.6 0.0 0.0
19:25 3.6 68.0 1022.9 0.0 NW 3.2 0.0 0.0
19:30 3.6 68.0 1023.0 0.0 NW 3.2 0.0 0.0
19:35 3.5 69.0 1023.0 0.0 NW 1.6 0.0 0.0
19:40 3.6 68.0 1023.2 0.0 NW 0.0 0.0 0.0
19:45 3.4 68.0 1023.2 0.0 NW 1.6 0.0 0.0
19:50 3.4 68.0 1023.3 0.0 NW 1.6 0.0 0.0
19:55 3.3 69.0 1023.4 0.0 NW 3.2 0.0 0.0
20:00 3.3 69.0 1023.3 1.6 N 4.8 0.0 0.0
20:05 3.3 69.0 1023.3 3.2 N 4.8 0.0 0.0
20:10 3.3 69.0 1023.3 1.6 N 3.2 0.0 0.0
20:15 3.2 67.0 1023.2 1.6 N 3.2 0.0 0.0
20:20 3.1 68.0 1023.4 0.0 N 3.2 0.0 0.0
20:25 3.1 68.0 1023.3 1.6 N 3.2 0.0 0.0
20:30 3.1 69.0 1023.3 0.0 N 3.2 0.0 0.0
20:35 3.2 69.0 1023.3 0.0 N 3.2 0.0 0.0
20:40 3.3 68.0 1023.3 0.0 N 3.2 0.0 0.0
20:45 3.4 67.0 1023.3 4.8 N 4.8 0.0 0.0
20:50 3.5 66.0 1023.4 3.2 N 4.8 0.0 0.0
20:55 3.6 66.0 1023.2 0.0 N 6.4 0.0 0.0
21:00 3.6 65.0 1023.2 0.0 N 3.2 0.0 0.0
21:05 3.4 65.0 1023.2 0.0 N 3.2 0.0 0.0
21:10 3.4 65.0 1023.3 0.0 N 1.6 0.0 0.0
Màxima 12.4 70.0 1023.4 11.3 SE 17.7 0.0 575.0
Mínima 0.3 27.0 1019.9
Total 0.0